[[{"header":{"parameterUnit":"m.s-1","parameterCategory":1,"la1":30.2991,"la2":30.254,"lo1":-89.0895,"lo2":-89.0444,"dy":0.0017,"dx":0.0017,"nx":28,"ny":28,"refTime":"2023-10-07T09:00:00:Z","depth":0,"parameterNumber":2,"parameterNumberName":"U-component_of_WINDS"},"data":[0,0,0,0,0,0,0,0,0,0,0,0,0,0,0,0,0,0,0,0,0,0,0,0,0,0,0,0,0,0,0,0,0,0,0,0,0,0,0,0,0,0,0,0,0,0,0,0,0,0,0,0,0,0,0,0,0,0,0.1524,0.1524,0,0.1534,0.1534,0.1534,0.1551,0.1551,0.1551,0.1552,0.1563,0.1563,0.1563,0,0,0,0,0,0,0,0,0,0,0,0,0,0.152,0.152,0.1524,0.1524,0.1524,0.1534,0.1534,0.1534,0.1551,0.1551,0.1551,0.1552,0.1563,0.1563,0.1563,0,0,0,0,0,0,0,0,0,0,0,0,0,0.1525,0.152,0.1524,0.1534,0.1534,0.1534,0.1534,0.1534,0.1551,0.1551,0.1551,0.1552,0.1563,0.1563,0.1563,0.1554,0,0,0.1563,0.1563,0,0,0,0,0,0,0,0,0.1525,0.1525,0.1532,0.1533,0.1534,0.1542,0.1537,0.1541,0.155,0.1544,0.1552,0.1552,0.1555,0.1556,0.1557,0.1554,0.1555,0.1563,0.1563,0.1563,0.1563,0,0,0,0,0,0,0,0.1525,0.1525,0.1528,0.1532,0.1533,0.1538,0.1539,0.1538,0.1547,0.1545,0.1546,0.1547,0.1556,0.1557,0.1557,0.1555,0.1563,0.1563,0.1563,0.1563,0.1547,0.1547,0,0,0,0,0,0,0.1523,0.1525,0.1528,0.1528,0.153,0.1538,0.1539,0.1539,0.1547,0.1549,0.1547,0.1548,0.1557,0.1557,0.1558,0.1548,0.1563,0.1563,0.1563,0.1548,0.1547,0.1547,0,0,0,0,0,0,0.1522,0.1523,0.1527,0.1527,0.1528,0.1537,0.1537,0.1539,0.154,0.1549,0.1551,0.1546,0.1557,0.1558,0.1555,0.1549,0.1563,0.1563,0.1548,0.1547,0.1547,0.153,0,0,0,0,0,0,0.1522,0.1523,0.1519,0.1527,0.1528,0.1524,0.1536,0.1539,0.154,0.1541,0.1548,0.155,0.1557,0.1555,0.1555,0.1549,0.1563,0.1549,0.1548,0.1547,0.1531,0.1528,0.1527,0,0,0,0,0,0.1522,0.1513,0.1519,0.1519,0.1523,0.1523,0.1524,0.1533,0.1539,0.1536,0.1542,0.155,0.155,0.1554,0.1555,0.1549,0.1549,0.1548,0.1547,0.1532,0.1529,0.1527,0,0,0,0,0,0,0.1504,0.1515,0.152,0.1514,0.1518,0.1526,0.1522,0.1529,0.1531,0.1533,0.1543,0.1545,0.1541,0.1545,0.155,0.1542,0.1551,0.155,0.1539,0.1536,0.1534,0.1533,0.1563,0,0,0,0,0,0.15,0.1499,0.1508,0.1501,0.1503,0.1512,0.1513,0.1519,0.1523,0.1525,0.1531,0.1535,0.1536,0.1537,0.1538,0.1532,0.1534,0.1528,0.1526,0.1524,0.1523,0.1521,0.1519,0.1543,0.1543,0.1543,0,0,0.149,0.1496,0.1494,0.1498,0.1502,0.1501,0.1513,0.1512,0.1511,0.1525,0.1523,0.1527,0.1533,0.1528,0.1527,0.1532,0.1517,0.1523,0.1522,0.1522,0.152,0.1517,0.1515,0.1543,0.1543,0.1543,0,0,0.1472,0.1476,0.1471,0.1475,0.1481,0.1487,0.1486,0.1494,0.1497,0.1495,0.1506,0.1506,0.1508,0.1511,0.1513,0.1499,0.1506,0.1499,0.1488,0.1485,0.1483,0.1482,0.1477,0.1475,0.1498,0.1498,0.1498,0,0.1459,0.1458,0.1468,0.1466,0.1468,0.148,0.1476,0.1479,0.1485,0.1486,0.1492,0.1495,0.1499,0.1496,0.1493,0.1494,0.1494,0.1498,0.1483,0.1481,0.148,0.1475,0.1473,0.1497,0.1497,0.1497,0.1497,0,0.1442,0.1442,0.1437,0.1443,0.1444,0.1441,0.1451,0.1451,0.1458,0.1464,0.1463,0.1469,0.1472,0.1472,0.1479,0.1471,0.1474,0.1481,0.149,0.1476,0.1472,0.147,0.1496,0.1496,0.1496,0.1497,0,0,0.1412,0.1424,0.1422,0.1425,0.1433,0.1433,0.1431,0.1435,0.1435,0.1439,0.1438,0.144,0.1447,0.1449,0.1457,0.1455,0.1443,0.1462,0.1463,0.1458,0.1435,0.1429,0.1427,0.1449,0.1448,0.1448,0.1435,0,0.1395,0.1392,0.1402,0.1396,0.1396,0.1409,0.1407,0.1412,0.1419,0.142,0.1427,0.1428,0.1437,0.1439,0.1438,0.1445,0.1438,0.1446,0.1448,0.1448,0.1445,0.1425,0.1418,0.1405,0.1433,0.1433,0.1432,0,0.1375,0.1378,0.1373,0.1382,0.1382,0.138,0.1385,0.1386,0.1392,0.1397,0.1401,0.1409,0.1409,0.1419,0.1418,0.1423,0.1425,0.1429,0.1429,0.1429,0.1439,0.1424,0.1401,0.1398,0.143,0.143,0.143,0,0.1353,0.1356,0.1354,0.1356,0.1367,0.1365,0.137,0.1377,0.1379,0.1383,0.1385,0.1389,0.1391,0.1394,0.1404,0.141,0.1403,0.1414,0.1407,0.1407,0.1405,0.1404,0.1381,0.1406,0.1406,0.1407,0.1407,0,0.1333,0.1329,0.1344,0.1342,0.1339,0.1351,0.1347,0.1353,0.1359,0.136,0.1372,0.1372,0.1385,0.1387,0.1395,0.1394,0.1395,0.1399,0.1401,0.1398,0.1397,0.1398,0.1399,0.1406,0.1406,0.1406,0.1406,0,0.1307,0.1317,0.1315,0.1326,0.1329,0.1326,0.1335,0.1335,0.1342,0.1342,0.1343,0.1355,0.1358,0.1369,0.1374,0.138,0.1376,0.138,0.1373,0.1375,0.1368,0.1368,0.1344,0.1342,0.1369,0.1369,0.1368,0,0.1294,0.1291,0.1302,0.1303,0.1307,0.1308,0.131,0.1323,0.1324,0.1333,0.1331,0.1335,0.1339,0.1343,0.1352,0.1357,0.1361,0.1352,0.1362,0.1359,0.1361,0.1361,0.1361,0.135,0.135,0.1349,0.1349,0,0.1268,0.1273,0.1276,0.128,0.1283,0.1287,0.1292,0.1292,0.1306,0.1308,0.1311,0.1314,0.132,0.1324,0.133,0.1335,0.1345,0.1346,0.1345,0.1341,0.1337,0.1339,0.1368,0.1346,0.1347,0.1347,0.1347,0.1347,0.1248,0.1246,0.1254,0.1257,0.1262,0.1267,0.1267,0.1275,0.1277,0.1283,0.1291,0.1293,0.1301,0.1311,0.1315,0.1318,0.1323,0.1321,0.1321,0.132,0.1318,0.1337,0.1319,0.1319,0.1319,0.132,0.132,0,0.1223,0.1229,0.1231,0.1238,0.124,0.1249,0.1256,0.1257,0.1259,0.1266,0.1269,0.1274,0.1278,0.1288,0.1294,0.1294,0.1298,0.1295,0.1295,0.1296,0.1313,0.1314,0.1291,0.1291,0.1291,0.1291,0.1291,0.1291,0.121,0.1208,0.1215,0.1216,0.1222,0.1224,0.1227,0.1232,0.1238,0.1242,0.1245,0.1252,0.1261,0.1267,0.1272,0.1275,0.1276,0.1271,0.1276,0.1292,0.1294,0.1297,0.1297,0.1272,0.1272,0.1258,0.1258,0.1258]},{"header":{"parameterUnit":"m.s-1","parameterCategory":1,"la1":30.2991,"la2":30.254,"lo1":-89.0895,"lo2":-89.0444,"dy":0.0017,"dx":0.0017,"nx":28,"ny":28,"refTime":"2023-10-07T09:00:00:Z","depth":0,"parameterNumber":3,"parameterNumberName":"V-component_of_WINDS"},"data":[0,0,0,0,0,0,0,0,0,0,0,0,0,0,0,0,0,0,0,0,0,0,0,0,0,0,0,0,0,0,0,0,0,0,0,0,0,0,0,0,0,0,0,0,0,0,0,0,0,0,0,0,0,0,0,0,0,0,-6.5976,-6.5977,0,-6.6058,-6.6059,-6.606,-6.605,-6.6049,-6.6047,-6.6046,-6.6123,-6.6126,-6.6129,0,0,0,0,0,0,0,0,0,0,0,0,0,-6.5807,-6.581,-6.5976,-6.5977,-6.5978,-6.6058,-6.6059,-6.606,-6.605,-6.6048,-6.6047,-6.6045,-6.6122,-6.6126,-6.613,0,0,0,0,0,0,0,0,0,0,0,0,0,-6.5884,-6.5811,-6.5976,-6.5983,-6.5985,-6.6058,-6.6059,-6.606,-6.605,-6.6048,-6.6047,-6.6045,-6.6121,-6.6125,-6.613,-6.62,0,0,-6.6145,-6.6147,0,0,0,0,0,0,0,0,-6.5879,-6.589,-6.5981,-6.5983,-6.5985,-6.6042,-6.6028,-6.6107,-6.6051,-6.6025,-6.6046,-6.6044,-6.6097,-6.6104,-6.6123,-6.6203,-6.6206,-6.6146,-6.6149,-6.6151,-6.6152,0,0,0,0,0,0,0,-6.5874,-6.5886,-6.6008,-6.5982,-6.5985,-6.5981,-6.5989,-6.6043,-6.6071,-6.6027,-6.6027,-6.6037,-6.6098,-6.6119,-6.6125,-6.6208,-6.6145,-6.615,-6.6153,-6.6155,-6.635,-6.6352,0,0,0,0,0,0,-6.5868,-6.5882,-6.6006,-6.6011,-6.5926,-6.5985,-6.5995,-6.6025,-6.607,-6.6076,-6.6039,-6.6036,-6.6111,-6.6119,-6.6128,-6.6213,-6.6151,-6.6155,-6.6158,-6.6348,-6.635,-6.6353,0,0,0,0,0,0,-6.5864,-6.5879,-6.6003,-6.5947,-6.5962,-6.599,-6.6024,-6.6028,-6.6049,-6.6079,-6.6083,-6.6055,-6.611,-6.6121,-6.6183,-6.6215,-6.6157,-6.6162,-6.6345,-6.6349,-6.6352,-6.6383,0,0,0,0,0,0,-6.5859,-6.5878,-6.5905,-6.5947,-6.5965,-6.6058,-6.6026,-6.6031,-6.6058,-6.6056,-6.6096,-6.61,-6.6109,-6.6175,-6.6187,-6.6221,-6.6166,-6.6342,-6.6347,-6.6351,-6.6379,-6.6387,-6.6394,0,0,0,0,0,-6.5853,-6.5909,-6.5907,-6.5922,-6.6,-6.606,-6.6069,-6.6081,-6.6061,-6.6088,-6.6108,-6.6099,-6.621,-6.6182,-6.6195,-6.6231,-6.634,-6.6345,-6.635,-6.6376,-6.6386,-6.6394,0,0,0,0,0,0,-6.5867,-6.5915,-6.5912,-6.5984,-6.6018,-6.6058,-6.6092,-6.609,-6.6129,-6.6125,-6.6135,-6.6144,-6.6207,-6.6225,-6.6193,-6.6301,-6.6272,-6.628,-6.6287,-6.6296,-6.6304,-6.6298,-6.617,0,0,0,0,0,-6.5879,-6.5925,-6.5963,-6.6022,-6.604,-6.6064,-6.609,-6.6096,-6.6131,-6.6144,-6.6168,-6.6201,-6.6243,-6.6271,-6.6311,-6.6382,-6.6391,-6.6413,-6.6421,-6.6426,-6.6433,-6.6473,-6.6483,-6.6369,-6.6369,-6.6369,0,0,-6.5903,-6.5934,-6.5962,-6.6026,-6.6053,-6.6099,-6.6075,-6.6125,-6.6159,-6.6151,-6.6212,-6.6231,-6.6268,-6.6335,-6.6366,-6.6352,-6.6467,-6.6433,-6.6437,-6.6441,-6.6479,-6.649,-6.6499,-6.6373,-6.6372,-6.6372,0,0,-6.597,-6.5999,-6.6052,-6.6081,-6.6124,-6.614,-6.6152,-6.6193,-6.6207,-6.6268,-6.6264,-6.6304,-6.6376,-6.6404,-6.6427,-6.6508,-6.6501,-6.652,-6.6558,-6.6597,-6.6606,-6.6614,-6.6643,-6.6653,-6.6527,-6.6527,-6.6527,0,-6.5993,-6.6065,-6.6079,-6.613,-6.6158,-6.6157,-6.621,-6.6237,-6.6289,-6.6308,-6.6293,-6.6386,-6.641,-6.6484,-6.6505,-6.6523,-6.6538,-6.6515,-6.6604,-6.6612,-6.662,-6.6648,-6.6659,-6.6529,-6.6529,-6.6529,-6.6528,0,-6.6092,-6.6142,-6.6179,-6.6234,-6.6266,-6.6318,-6.6339,-6.637,-6.6374,-6.6391,-6.6454,-6.6484,-6.6532,-6.655,-6.6553,-6.6625,-6.6615,-6.6602,-6.6573,-6.6633,-6.6659,-6.667,-6.6532,-6.6531,-6.6531,-6.653,0,0,-6.6168,-6.6233,-6.6246,-6.6272,-6.632,-6.6358,-6.641,-6.6459,-6.6486,-6.6522,-6.6566,-6.6629,-6.6618,-6.6644,-6.665,-6.6684,-6.6747,-6.6667,-6.6668,-6.6681,-6.6829,-6.6839,-6.6851,-6.6744,-6.6746,-6.6748,-6.6826,0,-6.624,-6.6335,-6.6351,-6.6433,-6.6479,-6.6479,-6.6525,-6.6559,-6.6577,-6.6617,-6.6636,-6.6681,-6.6662,-6.6679,-6.6712,-6.6733,-6.6777,-6.6727,-6.6783,-6.6785,-6.6774,-6.6865,-6.6875,-6.6948,-6.6837,-6.6839,-6.684,0,-6.6337,-6.638,-6.6468,-6.6513,-6.6533,-6.6573,-6.6621,-6.666,-6.6698,-6.6709,-6.674,-6.6743,-6.6796,-6.6766,-6.6839,-6.6804,-6.6828,-6.6842,-6.6845,-6.685,-6.6816,-6.6873,-6.6972,-6.6983,-6.6856,-6.6855,-6.6854,0,-6.6385,-6.6464,-6.6528,-6.655,-6.6603,-6.6632,-6.6655,-6.6692,-6.6721,-6.6762,-6.6781,-6.6826,-6.6851,-6.6885,-6.69,-6.6876,-6.6972,-6.6943,-6.6981,-6.6981,-6.7001,-6.6999,-6.7105,-6.7017,-6.7016,-6.7016,-6.7016,0,-6.6464,-6.6517,-6.6551,-6.6589,-6.665,-6.6667,-6.6725,-6.6747,-6.6781,-6.6823,-6.6825,-6.6864,-6.6881,-6.6923,-6.6934,-6.6994,-6.7004,-6.7014,-6.7016,-6.7014,-6.7012,-6.7029,-6.7024,-6.7019,-6.7018,-6.7018,-6.7017,0,-6.6526,-6.6551,-6.662,-6.6666,-6.6679,-6.6722,-6.676,-6.6797,-6.6816,-6.687,-6.6883,-6.6912,-6.6961,-6.698,-6.7039,-6.7047,-6.7115,-6.7113,-6.7103,-6.7103,-6.7141,-6.7138,-6.7261,-6.7278,-6.7178,-6.7179,-6.718,0,-6.6575,-6.6617,-6.6669,-6.6699,-6.6724,-6.6772,-6.6803,-6.6821,-6.6853,-6.6902,-6.6933,-6.6983,-6.7024,-6.7103,-6.7127,-6.7173,-6.7172,-6.7212,-6.7179,-6.7176,-6.7173,-6.717,-6.7175,-6.7218,-6.7219,-6.722,-6.7221,0,-6.6659,-6.667,-6.6716,-6.6767,-6.6805,-6.6845,-6.6884,-6.6908,-6.6932,-6.6967,-6.7019,-6.7052,-6.7114,-6.7163,-6.7211,-6.7232,-6.7231,-6.7232,-6.7243,-6.7241,-6.7233,-6.7238,-6.712,-6.7228,-6.7227,-6.7227,-6.7226,-6.7226,-6.6717,-6.6755,-6.6799,-6.685,-6.6882,-6.6919,-6.6957,-6.6982,-6.7027,-6.7081,-6.7089,-6.7145,-6.7183,-6.7247,-6.7271,-6.7314,-6.7303,-6.732,-6.7324,-6.7328,-6.7331,-6.7227,-6.7323,-6.7323,-6.7322,-6.7322,-6.7322,0,-6.6802,-6.683,-6.6878,-6.6934,-6.6975,-6.6973,-6.7016,-6.7049,-6.71,-6.7137,-6.7179,-6.7239,-6.7288,-6.7317,-6.7366,-6.7395,-6.7395,-6.7407,-6.7405,-6.741,-6.7337,-6.7323,-6.7406,-6.7406,-6.7406,-6.7406,-6.7406,-6.7406,-6.685,-6.6916,-6.6932,-6.7013,-6.704,-6.7098,-6.7123,-6.7157,-6.7187,-6.7256,-6.7297,-6.7317,-6.7352,-6.7403,-6.7448,-6.7455,-6.7473,-6.7485,-6.7492,-6.7423,-6.7415,-6.7406,-6.7393,-6.7489,-6.7489,-6.7561,-6.7561,-6.7562]}]]